Weather in Cognac

France     45˚41′34″N   0˚19′28″E
temp.,
°C
wind,
m/s
gust,
m/s
humid.,
%
clouds,
%
prec.,
mm/h
press.,
hPa
HPBL,
m
1 december, tue
tue101:00+4˚n2254100 0.0 102722
04:00+5˚wnw1259100 0.0 102622
07:00+6˚w3684100 0.8 1025187
10:00+9˚wnw31096100 0.4 1024506
13:00+10˚nne6766100 0.4 1024811
16:00+8˚n4768100 0.0 1023809
19:00+7˚n3977100 0.0 1023533
22:00+6˚nnw41083100 0.0 1023336
2 december, wed
wed201:00+4˚n3891100 0.0 1023283
04:00+3˚nnw38940 0.0 1021225
07:00+2˚nnw399238 0.0 1021247
10:00+4˚nnw488223 0.0 1020291
13:00+6˚nnw467445 0.0 1020504
16:00+7˚nw367491 0.0 1019579
19:00+5˚nw358490 0.0 101994
22:00+5˚wnw2482100 0.0 1019127
3 december, thu
thu301:00+3˚w228884 0.0 101722
04:00+4˚ssw3489100 0.0 101485
07:00+5˚s4784100 0.0 1011176
10:00+7˚ssw5108692 0.3 1009356
13:00+9˚s338696 0.3 1005240
16:00+8˚s5892100 0.6 1000415
19:00+8˚ssw61285100 2.1 996720
22:00+9˚sw61389100 4.9 991866
4 december, fri
fri401:00+6˚wsw4108798 7.1 987295
04:00+7˚sw5989100 0.5 985360
07:00+4˚nnw61085100 1.3 985410
10:00+5˚nw598695 0.0 988779
13:00+7˚nw576997 0.0 9891016
16:00+6˚nw476666 0.0 990966
19:00+4˚wnw227573 0.0 99234
22:00+2˚wnw12796 0.0 99322
5 december, sat
sat501:00+2˚w117851 0.0 99422
04:00+2˚wsw227977 0.0 99522
07:00+1˚ssw338072 0.0 99545
10:00+3˚ssw358315 0.0 997153
13:00+8˚wsw356420 0.1 997891
16:00+7˚nw487150 0.7 997792
19:00+3˚wnw236926 0.7 99833
22:00+3˚w378242 0.0 999165